Find STARLINK-37912

NORAD ID: 799501045 Int'l Des: 2026-146X Constellation: starlink operational

Current View

Loading 3D Globe...

About STARLINK-37912

STARLINK-37912 (NORAD 799501045) is a starlink constellation satellite launched Jun 12, 2026

About STARLINK-37912

Description loading...

Upcoming Passes

Passes for default location (London). Set your location on the main map for personalized predictions.

Altitude History

Loading altitude history...

Two-Line Element Set

1 99999C 2026146X 26176.31159721 .00873630 00000-0 133290-3 0 1762
2 99999 97.2854 21.9653 0011103 276.7886 84.1303 16.03862354 16
Epoch: Jun 25, 2026 • Age: 9 hours